ANA4BK RJTT-RJTH

Flight info

Callsign ANA4BK
Flight time 0h 36m
Altitude 20000
Route VAMOS HATSU/N0384F190 Y587 SANGO
Aircraft A20N/M-SDE2E3FGHIRWXY/LB1

Departure

Time 2026-04-23 19:25
Airport Tokyo Haneda International Airport (RJTT)

Arrival

Time 2026-04-23 20:02
Airport Hachijojima Airport (RJTH)
Time Latitude Longitude Altitude Speed Heading
2026-04-23 18:40 35.55013 139.77042 24 ft 0 kts 150°
2026-04-23 19:09 35.55018 139.77039 25 ft 2 kts 150°
2026-04-23 19:09 35.55031 139.77029 25 ft 2 kts 150°
2026-04-23 19:09 35.55044 139.77020 26 ft 2 kts 150°
2026-04-23 19:09 35.55057 139.77011 27 ft 2 kts 150°
2026-04-23 19:10 35.55070 139.77004 28 ft 2 kts 172°
2026-04-23 19:10 35.55085 139.77004 29 ft 2 kts 194°
2026-04-23 19:10 35.55099 139.77011 29 ft 2 kts 218°
2026-04-23 19:10 35.55107 139.77022 29 ft 0 kts 237°
2026-04-23 19:11 35.55110 139.77028 29 ft 0 kts 240°
2026-04-23 19:11 35.55111 139.77029 29 ft 0 kts 240°
2026-04-23 19:17 35.55101 139.77008 29 ft 0 kts 239°
2026-04-23 19:17 35.55094 139.76994 29 ft 3 kts 238°
2026-04-23 19:17 35.55077 139.76962 28 ft 0 kts 239°
2026-04-23 19:18 35.55076 139.76961 28 ft 1 kts 239°
2026-04-23 19:18 35.55060 139.76927 27 ft 6 kts 240°
2026-04-23 19:18 35.55029 139.76860 25 ft 10 kts 239°
2026-04-23 19:18 35.54998 139.76794 26 ft 8 kts 240°
2026-04-23 19:19 35.54940 139.76674 29 ft 7 kts 240°
2026-04-23 19:19 35.54915 139.76619 30 ft 7 kts 240°
2026-04-23 19:20 35.54854 139.76483 25 ft 9 kts 258°
2026-04-23 19:20 35.54867 139.76419 23 ft 6 kts 287°
2026-04-23 19:20 35.54865 139.76384 22 ft 0 kts 251°
2026-04-23 19:21 35.54853 139.76360 19 ft 8 kts 229°
2026-04-23 19:21 35.54859 139.76228 14 ft 0 kts 307°
2026-04-23 19:22 35.54869 139.76211 14 ft 3 kts 307°
2026-04-23 19:23 35.54885 139.76186 13 ft 4 kts 307°
2026-04-23 19:23 35.54914 139.76157 13 ft 5 kts 345°
2026-04-23 19:23 35.54946 139.76166 13 ft 0 kts 31°
2026-04-23 19:24 35.55003 139.76210 15 ft 40 kts 35°
2026-04-23 19:25 35.56260 139.77303 112 ft 162 kts 33°
2026-04-23 19:25 35.58221 139.78984 1178 ft 186 kts 33°
2026-04-23 19:26 35.60320 139.80780 2565 ft 197 kts 35°
2026-04-23 19:26 35.61500 139.81798 3057 ft 215 kts 35°
2026-04-23 19:27 35.64109 139.84090 4142 ft 241 kts 40°
2026-04-23 19:27 35.65011 139.88013 5511 ft 270 kts 102°
2026-04-23 19:28 35.64294 139.89764 6371 ft 281 kts 126°
2026-04-23 19:28 35.60876 139.92156 8305 ft 294 kts 159°
2026-04-23 19:29 35.58965 139.93071 9198 ft 299 kts 159°
2026-04-23 19:29 35.55043 139.94916 10795 ft 310 kts 169°
2026-04-23 19:30 35.50570 139.94844 11694 ft 337 kts 194°
2026-04-23 19:30 35.48205 139.94244 12077 ft 355 kts 197°
2026-04-23 19:30 35.43385 139.92078 12965 ft 377 kts 211°
2026-04-23 19:31 35.41063 139.90512 13712 ft 379 kts 213°
2026-04-23 19:31 35.38781 139.88930 14487 ft 380 kts 214°
2026-04-23 19:31 35.36914 139.87630 15067 ft 382 kts 214°
2026-04-23 19:31 35.35366 139.86554 15580 ft 382 kts 213°
2026-04-23 19:32 35.33186 139.85042 16281 ft 383 kts 214°
2026-04-23 19:32 35.30880 139.83440 16978 ft 384 kts 214°
2026-04-23 19:32 35.28549 139.81825 17639 ft 385 kts 214°
2026-04-23 19:32 35.26205 139.80203 18228 ft 388 kts 214°
2026-04-23 19:33 35.23869 139.78580 18822 ft 389 kts 216°
2026-04-23 19:33 35.21598 139.76802 19398 ft 388 kts 220°
2026-04-23 19:33 35.17415 139.72694 19830 ft 382 kts 227°
2026-04-23 19:34 35.15487 139.70471 19835 ft 380 kts 227°
2026-04-23 19:34 35.13573 139.68256 19835 ft 381 kts 228°
2026-04-23 19:34 35.09728 139.63794 19836 ft 381 kts 227°
2026-04-23 19:35 35.07811 139.61571 19825 ft 380 kts 227°
2026-04-23 19:35 35.05907 139.59361 19828 ft 380 kts 228°
2026-04-23 19:35 35.03991 139.57144 19829 ft 380 kts 228°
2026-04-23 19:35 35.02076 139.54929 19827 ft 381 kts 227°
2026-04-23 19:36 35.00044 139.52849 19812 ft 385 kts 218°
2026-04-23 19:36 34.97607 139.51445 19821 ft 395 kts 205°
2026-04-23 19:36 34.94839 139.50816 19823 ft 411 kts 191°
2026-04-23 19:36 34.91969 139.51064 19817 ft 422 kts 179°
2026-04-23 19:37 34.89043 139.51689 19826 ft 423 kts 178°
2026-04-23 19:37 34.86144 139.52330 19813 ft 423 kts 178°
2026-04-23 19:37 34.83254 139.52971 19809 ft 422 kts 178°
2026-04-23 19:37 34.80376 139.53607 19813 ft 421 kts 178°
2026-04-23 19:38 34.77497 139.54244 19814 ft 421 kts 178°
2026-04-23 19:38 34.74603 139.54883 19813 ft 422 kts 178°
2026-04-23 19:38 34.71720 139.55516 19812 ft 423 kts 178°
2026-04-23 19:38 34.68811 139.56157 19808 ft 423 kts 178°
2026-04-23 19:39 34.65909 139.56793 19815 ft 423 kts 178°
2026-04-23 19:39 34.63008 139.57430 19808 ft 423 kts 178°
2026-04-23 19:39 34.60134 139.58063 19800 ft 421 kts 178°
2026-04-23 19:39 34.57255 139.58696 19814 ft 421 kts 178°
2026-04-23 19:40 34.54359 139.59331 19802 ft 421 kts 179°
2026-04-23 19:40 34.51455 139.59966 19808 ft 421 kts 178°
2026-04-23 19:40 34.48598 139.60591 19811 ft 422 kts 178°
2026-04-23 19:40 34.45692 139.61226 19813 ft 422 kts 178°
2026-04-23 19:41 34.42796 139.61856 19811 ft 422 kts 178°
2026-04-23 19:41 34.39909 139.62485 19807 ft 422 kts 178°
2026-04-23 19:41 34.37020 139.63113 19795 ft 422 kts 178°
2026-04-23 19:41 34.34135 139.63742 19795 ft 423 kts 179°
2026-04-23 19:42 34.31228 139.64371 19789 ft 421 kts 178°
2026-04-23 19:42 34.28347 139.64998 19794 ft 421 kts 179°
2026-04-23 19:42 34.25468 139.65624 19750 ft 421 kts 179°
2026-04-23 19:42 34.22577 139.66251 19507 ft 420 kts 178°
2026-04-23 19:43 34.19713 139.66873 19252 ft 418 kts 178°
2026-04-23 19:43 34.16857 139.67496 19024 ft 418 kts 178°
2026-04-23 19:43 34.13996 139.68114 18787 ft 416 kts 178°
2026-04-23 19:43 34.11138 139.68730 18547 ft 415 kts 178°
2026-04-23 19:44 34.08290 139.69347 18311 ft 414 kts 178°
2026-04-23 19:44 34.05468 139.69959 18071 ft 413 kts 178°
2026-04-23 19:44 34.02615 139.70575 17824 ft 412 kts 177°
2026-04-23 19:44 33.99821 139.71182 17586 ft 411 kts 178°
2026-04-23 19:45 33.97022 139.71786 17350 ft 407 kts 178°
2026-04-23 19:45 33.94212 139.72392 17103 ft 406 kts 178°
2026-04-23 19:45 33.91450 139.72989 16852 ft 406 kts 178°
2026-04-23 19:45 33.88650 139.73592 16523 ft 404 kts 178°
2026-04-23 19:46 33.85917 139.74179 16107 ft 401 kts 178°
2026-04-23 19:46 33.83181 139.74770 15542 ft 398 kts 177°
2026-04-23 19:46 33.80574 139.75333 14960 ft 396 kts 178°
2026-04-23 19:46 33.77854 139.75915 14355 ft 392 kts 177°
2026-04-23 19:47 33.75203 139.76483 13764 ft 390 kts 178°
2026-04-23 19:47 33.72538 139.77055 13147 ft 388 kts 177°
2026-04-23 19:47 33.69861 139.77626 12473 ft 388 kts 177°
2026-04-23 19:47 33.67245 139.78186 11849 ft 387 kts 176°
2026-04-23 19:48 33.64610 139.78752 11411 ft 378 kts 176°
2026-04-23 19:48 33.62051 139.79306 11102 ft 366 kts 176°
2026-04-23 19:48 33.59582 139.79839 10793 ft 355 kts 176°
2026-04-23 19:48 33.57193 139.80353 10552 ft 343 kts 177°
2026-04-23 19:49 33.54882 139.80844 10379 ft 329 kts 178°
2026-04-23 19:49 33.52668 139.81122 10165 ft 314 kts 185°
2026-04-23 19:49 33.50539 139.81125 10029 ft 297 kts 189°
2026-04-23 19:49 33.48506 139.81017 9893 ft 285 kts 191°
2026-04-23 19:50 33.46554 139.80898 9617 ft 280 kts 191°
2026-04-23 19:50 33.44661 139.80780 9278 ft 267 kts 190°
2026-04-23 19:50 33.42826 139.80669 8950 ft 259 kts 190°
2026-04-23 19:50 33.41033 139.80563 8658 ft 254 kts 190°
2026-04-23 19:51 33.39291 139.80438 8375 ft 247 kts 195°
2026-04-23 19:51 33.37684 139.79950 8003 ft 232 kts 208°
2026-04-23 19:51 33.36302 139.79089 7688 ft 216 kts 217°
2026-04-23 19:51 33.35061 139.78151 7445 ft 212 kts 217°
2026-04-23 19:52 33.33827 139.77211 7199 ft 206 kts 217°
2026-04-23 19:52 33.32636 139.76309 6886 ft 198 kts 218°
2026-04-23 19:52 33.31509 139.75453 6606 ft 189 kts 218°
2026-04-23 19:52 33.30394 139.74609 6395 ft 187 kts 218°
2026-04-23 19:53 33.29291 139.73770 6156 ft 188 kts 218°
2026-04-23 19:53 33.28184 139.72929 5928 ft 190 kts 217°
2026-04-23 19:53 33.27068 139.72084 5621 ft 192 kts 217°
2026-04-23 19:53 33.25936 139.71233 5377 ft 193 kts 218°
2026-04-23 19:54 33.24792 139.70364 5084 ft 197 kts 217°
2026-04-23 19:54 33.23645 139.69502 4809 ft 190 kts 217°
2026-04-23 19:54 33.22565 139.68690 4577 ft 179 kts 218°
2026-04-23 19:54 33.21517 139.67909 4675 ft 174 kts 218°
2026-04-23 19:55 33.20503 139.67142 4643 ft 174 kts 218°
2026-04-23 19:55 33.19465 139.66354 4545 ft 174 kts 219°
2026-04-23 19:55 33.18998 139.66005 4502 ft 167 kts 218°
2026-04-23 19:55 33.18058 139.65303 4408 ft 152 kts 219°
2026-04-23 19:56 33.17160 139.64633 4386 ft 151 kts 220°
2026-04-23 19:56 33.16287 139.63971 4341 ft 143 kts 219°
2026-04-23 19:56 33.15458 139.63345 4240 ft 142 kts 220°
2026-04-23 19:56 33.14616 139.62711 4079 ft 143 kts 220°
2026-04-23 19:57 33.13770 139.62064 3882 ft 144 kts 219°
2026-04-23 19:57 33.12906 139.61429 3678 ft 150 kts 215°
2026-04-23 19:57 33.11910 139.60991 3468 ft 155 kts 195°
2026-04-23 19:57 33.10823 139.60912 3256 ft 159 kts 176°
2026-04-23 19:58 33.09743 139.61230 3037 ft 159 kts 156°
2026-04-23 19:58 33.08803 139.61906 2845 ft 158 kts 135°
2026-04-23 19:58 33.08087 139.62869 2631 ft 151 kts 115°
2026-04-23 19:58 33.07663 139.63979 2423 ft 145 kts 99°
2026-04-23 19:59 33.07518 139.65141 2255 ft 141 kts 84°
2026-04-23 19:59 33.07624 139.66290 2069 ft 136 kts 69°
2026-04-23 19:59 33.07928 139.67340 1874 ft 134 kts 62°
2026-04-23 19:59 33.08270 139.68370 1721 ft 133 kts 62°
2026-04-23 20:00 33.08597 139.69386 1546 ft 129 kts 61°
2026-04-23 20:00 33.08922 139.70377 1368 ft 129 kts 63°
2026-04-23 20:00 33.09246 139.71391 1214 ft 130 kts 64°
2026-04-23 20:00 33.09562 139.72394 1029 ft 128 kts 64°
2026-04-23 20:01 33.09877 139.73386 849 ft 129 kts 63°
2026-04-23 20:01 33.10190 139.74376 687 ft 126 kts 64°
2026-04-23 20:01 33.10495 139.75352 512 ft 125 kts 64°
2026-04-23 20:01 33.10800 139.76325 349 ft 125 kts 64°
2026-04-23 20:02 33.11106 139.77281 322 ft 122 kts 67°
2026-04-23 20:02 33.11396 139.78229 290 ft 115 kts 66°
2026-04-23 20:02 33.11594 139.78838 299 ft 36 kts 69°
2026-04-23 20:02 33.11679 139.79108 295 ft 33 kts 69°
2026-04-23 20:03 33.11757 139.79350 284 ft 21 kts 68°
2026-04-23 20:03 33.11797 139.79475 273 ft 8 kts 159°
2026-04-23 20:03 33.11785 139.79456 275 ft 0 kts 258°
2026-04-23 20:03 33.11779 139.79430 277 ft 7 kts 252°
2026-04-23 20:04 33.11765 139.79382 282 ft 6 kts 250°
2026-04-23 20:04 33.11743 139.79312 287 ft 11 kts 250°
2026-04-23 20:04 33.11709 139.79202 292 ft 16 kts 251°
2026-04-23 20:04 33.11670 139.79048 296 ft 22 kts 249°
2026-04-23 20:05 33.11605 139.78857 299 ft 26 kts 248°
2026-04-23 20:05 33.11537 139.78656 299 ft 23 kts 249°
2026-04-23 20:05 33.11487 139.78499 298 ft 19 kts 249°
2026-04-23 20:05 33.11463 139.78369 295 ft 14 kts 297°
2026-04-23 20:06 33.11517 139.78322 298 ft 6 kts 317°
2026-04-23 20:06 33.11542 139.78294 300 ft 3 kts 336°
2026-04-23 20:06 33.11555 139.78288 301 ft 5 kts 340°
2026-04-23 20:06 33.11581 139.78278 303 ft 0 kts 340°